Durango, Mexico

9:04 AM CST on November 19, 2017 (GMT -0600)
Durango

Weather History for MMDO - November, 2012

Change the Weather History Date:

Thursday, November 1, 2012

  Actual Average Record
Temperature  
Mean Temperature 64 °F -  
Max Temperature 81 °F 73 °F 83 °F (2016)
Min Temperature 46 °F 38 °F 28 °F (2007)
Degree Days  
Heating Degree Days 2    
Growing Degree Days 14 (Base 50)    
Moisture  
Dew Point 34 °F    
Average Humidity 32    
Maximum Humidity 70    
Minimum Humidity 11    
Precipitation  
Precipitation 0.00 in - - ()
Sea Level Pressure  
Sea Level Pressure 30.02 in    
Wind  
Wind Speed 3 mph ()    
Max Wind Speed 12 mph    
Max Gust Speed -    
Visibility 13.0 miles    
Events      
Averages and records for this station are not official NWS values.
T = Trace of Precipitation, MM = Missing Value Source: Averaged Metar Reports

Daily Weather History Graph

Daily Weather History Graph

Search for Another Location

Airport or City:

Trip Planner

Search our weather history database for the weather conditions in past years. The results will help you decide how hot, cold, wet, or windy it might be!

Date:

Astronomy

Nov. 01, 2012 Rise Set
Actual Time 7:04 AM CST 6:18 PM CST
Civil Twilight 6:41 AM CST 6:41 PM CST
Nautical Twilight 6:14 AM CST 7:08 PM CST
Astronomical Twilight 5:47 AM CST 7:35 PM CST
Moon 8:30 PM CST (11/1) 9:26 AM CST (11/1)
Length of Visible Light 12h 00m
Length of Day
11h 13m
Waning Gibbous, 92% of the Moon is Illuminated
Nov 1
Waning Gibbous
Nov 6
Last Quarter
Nov 13
New
Nov 20
First Quarter
Nov 28
Full

Hourly Weather History & Observations

Time (CST) Temp. Windchill Dew Point Humidity Pressure Visibility Wind Dir Wind Speed Gust Speed Precip Events Conditions
5:54 AM 42.8 °F 40.1 °F 33.8 °F 70% 29.94 in 10.0 mi NW 4.6 mph - N/A   Mostly Cloudy
5:58 AM 49 °F - 35 °F 46% 29.94 in 6 mi Calm Calm - -   Clear
6:46 AM 42.8 °F - 32.0 °F 66% 30.22 in 12.0 mi North 2.3 mph - N/A   Mostly Cloudy
7:47 AM 44.6 °F - 32.0 °F 61% 30.25 in 14.0 mi Calm Calm - N/A   Scattered Clouds
8:50 AM 54 °F - 31 °F 29% 30.04 in 19 mi Calm Calm - -   Scattered Clouds
9:45 AM 62.6 °F - 42.8 °F 48% 30.26 in 14.0 mi NNW 2.3 mph - N/A   Clear
10:49 AM 68.0 °F - 42.8 °F 40% 30.26 in 14.0 mi WSW 4.6 mph - N/A   Clear
11:45 AM 71 °F - 39 °F 20% 30.01 in 19 mi SSE 2.2 mph - -   Partly Cloudy
11:48 AM 75.2 °F - 37.4 °F 25% 29.93 in 14.0 mi Calm Calm - N/A   Scattered Clouds
12:43 PM 73.4 °F - 35.6 °F 25% 30.20 in 14.0 mi Calm Calm - N/A   Partly Cloudy
1:49 PM 78.8 °F - 28.4 °F 16% 30.16 in 14.0 mi South 9.2 mph - N/A   Clear
2:40 PM 78 °F - 37 °F 13% 29.82 in 25 mi WSW 4.5 mph - -   Partly Cloudy
2:46 PM 78.8 °F - 28.4 °F 16% 29.80 in 14.0 mi South 9.2 mph - N/A   Partly Cloudy
3:48 PM 78.8 °F - 28.4 °F 16% 30.10 in 14.0 mi East 4.6 mph - N/A   Partly Cloudy
4:43 PM 75.2 °F - 33.8 °F 22% 30.10 in 14.0 mi South 6.9 mph - N/A   Scattered Clouds
5:47 PM 69.8 °F - 33.8 °F 27% 29.84 in 14.0 mi Calm Calm - N/A   Mostly Cloudy
5:50 PM 73 °F - 30 °F 11% 29.73 in 19 mi South 2.2 mph - -   Mostly Cloudy
6:41 PM 68.0 °F - 35.6 °F 30% 30.10 in 12.0 mi East 11.5 mph - N/A   Mostly Cloudy
7:40 PM 68.0 °F - 35.6 °F 30% 30.13 in 10.0 mi SSW 9.2 mph - N/A   Mostly Cloudy
8:50 PM 64 °F - 31 °F 18% 29.77 in 6 mi SSW 2.2 mph - -   Scattered Clouds
11:55 PM 58 °F - 37 °F 34% 29.81 in 6 mi WSW 2.2 mph - -   Scattered Clouds